[[{"header":{"parameterUnit":"m.s-1","parameterCategory":1,"la1":30.2991,"la2":30.254,"lo1":-89.0895,"lo2":-89.0444,"dy":0.0017,"dx":0.0017,"nx":28,"ny":28,"refTime":"2023-05-26T21:00:00:Z","depth":0,"parameterNumber":2,"parameterNumberName":"U-component_of_WINDS"},"data":[0,0,0,0,0,0,0,0,0,0,0,0,0,0,0,0,0,0,0,0,0,0,0,0,0,0,0,0,0,0,0,0,0,0,0,0,0,0,0,0,0,0,0,0,0,0,0,0,0,0,0,0,0,0,0,0,0,0,0.7481,0.7482,0,0.761,0.7611,0.7613,0.7651,0.765,0.765,0.7649,0.7782,0.7786,0.779,0,0,0,0,0,0,0,0,0,0,0,0,0,0.7266,0.727,0.7481,0.7482,0.7484,0.7609,0.7611,0.7613,0.7651,0.765,0.7649,0.7649,0.778,0.7785,0.779,0,0,0,0,0,0,0,0,0,0,0,0,0,0.7374,0.7271,0.748,0.7518,0.7523,0.7609,0.7611,0.7614,0.7651,0.765,0.7649,0.7648,0.7779,0.7785,0.7791,0.785,0,0,0.781,0.7813,0,0,0,0,0,0,0,0,0.7367,0.7381,0.7511,0.7515,0.7521,0.7613,0.7584,0.7693,0.7651,0.7602,0.7649,0.7648,0.7726,0.7737,0.7763,0.7856,0.7862,0.7811,0.7814,0.7817,0.7819,0,0,0,0,0,0,0,0.736,0.7376,0.7532,0.7513,0.7519,0.7528,0.7542,0.7605,0.7669,0.7607,0.761,0.7624,0.7729,0.7757,0.7767,0.7864,0.781,0.7816,0.782,0.7822,0.8008,0.8009,0,0,0,0,0,0,0.7346,0.737,0.7528,0.7536,0.744,0.7533,0.7548,0.7585,0.7668,0.768,0.7625,0.7626,0.7747,0.7759,0.7772,0.7845,0.7817,0.7823,0.7826,0.8007,0.8009,0.801,0,0,0,0,0,0,0.7341,0.736,0.7522,0.7453,0.7475,0.7537,0.7578,0.7588,0.7616,0.7682,0.7693,0.7642,0.7747,0.7763,0.7829,0.785,0.7826,0.7831,0.8006,0.8008,0.8009,0.7991,0,0,0,0,0,0,0.7335,0.7358,0.7381,0.7454,0.7478,0.7578,0.7579,0.7591,0.7627,0.7628,0.7701,0.7712,0.7747,0.782,0.7836,0.7858,0.7836,0.8004,0.8006,0.8009,0.799,0.7992,0.7994,0,0,0,0,0,0.7327,0.7372,0.7382,0.7401,0.7509,0.7579,0.7594,0.7633,0.7628,0.7652,0.7694,0.771,0.7845,0.7826,0.7844,0.7869,0.8003,0.8006,0.8008,0.799,0.7992,0.7994,0,0,0,0,0,0,0.7301,0.7382,0.7395,0.7464,0.7514,0.7586,0.7617,0.7634,0.7688,0.7687,0.7734,0.775,0.7812,0.7848,0.7825,0.7929,0.7924,0.7931,0.7904,0.7907,0.7908,0.7898,0.7841,0,0,0,0,0,0.7303,0.7354,0.7422,0.7476,0.7501,0.7554,0.7587,0.7612,0.7666,0.7688,0.7735,0.7787,0.7841,0.7876,0.7929,0.7995,0.8011,0.8021,0.8022,0.8024,0.8029,0.8064,0.8069,0.8019,0.8019,0.8019,0,0,0.7308,0.7359,0.7388,0.7472,0.7514,0.7565,0.7572,0.7626,0.7664,0.7697,0.7762,0.7798,0.7859,0.7925,0.7956,0.7956,0.8046,0.8027,0.8027,0.8032,0.8068,0.8072,0.8076,0.802,0.802,0.802,0,0,0.7343,0.7387,0.7436,0.7478,0.7541,0.7576,0.7588,0.7656,0.7681,0.7747,0.7772,0.7818,0.791,0.7952,0.7985,0.8033,0.805,0.805,0.8059,0.8093,0.8097,0.8101,0.8117,0.8122,0.8054,0.8054,0.8054,0,0.7342,0.742,0.746,0.7512,0.7547,0.7578,0.7628,0.7666,0.7744,0.7767,0.7766,0.7881,0.7924,0.7999,0.8011,0.8037,0.8051,0.8042,0.8093,0.8097,0.8101,0.8117,0.8123,0.8054,0.8054,0.8054,0.8054,0,0.7414,0.7467,0.7499,0.7572,0.7612,0.7662,0.7709,0.7744,0.7766,0.78,0.7866,0.7919,0.7983,0.8002,0.8025,0.808,0.8078,0.8084,0.8081,0.8105,0.8121,0.8127,0.8053,0.8053,0.8053,0.8053,0,0,0.7437,0.753,0.7541,0.7574,0.7645,0.7687,0.7738,0.78,0.7828,0.788,0.7924,0.8,0.8005,0.8043,0.807,0.81,0.8133,0.8102,0.8104,0.8105,0.8196,0.819,0.8197,0.8144,0.8145,0.8146,0.819,0,0.7481,0.7574,0.761,0.7686,0.7734,0.7763,0.7807,0.7855,0.7889,0.7935,0.7972,0.8024,0.8028,0.8051,0.8082,0.8122,0.8151,0.812,0.8184,0.8186,0.8168,0.8205,0.82,0.8239,0.8197,0.8198,0.8199,0,0.7544,0.7595,0.7675,0.7738,0.776,0.78,0.7858,0.7902,0.7956,0.7978,0.8019,0.8044,0.8097,0.809,0.8164,0.8141,0.817,0.8193,0.8196,0.8203,0.8194,0.8213,0.8253,0.8259,0.8209,0.8208,0.8207,0,0.7551,0.7641,0.77,0.7727,0.7803,0.7829,0.7862,0.7915,0.7949,0.8,0.8022,0.8079,0.811,0.8153,0.8191,0.8183,0.8261,0.8258,0.8281,0.8279,0.8296,0.8295,0.8341,0.8315,0.8315,0.8315,0.8315,0,0.7596,0.7643,0.7704,0.774,0.7793,0.7835,0.7886,0.7921,0.7968,0.801,0.8039,0.8078,0.8127,0.8173,0.8203,0.8259,0.8273,0.8292,0.8299,0.8289,0.8287,0.8308,0.8306,0.8316,0.8316,0.8316,0.8315,0,0.7613,0.7656,0.7722,0.7787,0.7805,0.7841,0.7897,0.7933,0.7967,0.802,0.8035,0.8088,0.8143,0.8186,0.8258,0.8278,0.8337,0.8345,0.8318,0.8322,0.8342,0.8339,0.8404,0.8414,0.8381,0.8382,0.8382,0,0.7639,0.7676,0.7745,0.7775,0.7807,0.7856,0.7891,0.7932,0.7967,0.803,0.8058,0.8115,0.8162,0.8248,0.8293,0.8347,0.8357,0.8376,0.8365,0.8353,0.8356,0.8353,0.8357,0.8377,0.8377,0.8377,0.8377,0,0.7679,0.7697,0.7746,0.7802,0.7842,0.7888,0.7934,0.7957,0.8007,0.8044,0.81,0.8137,0.8209,0.8264,0.8323,0.8356,0.8375,0.838,0.8388,0.8378,0.836,0.8369,0.8321,0.8378,0.8378,0.8378,0.8378,0.8378,0.7701,0.7734,0.7787,0.784,0.7879,0.7921,0.7957,0.7995,0.8043,0.8104,0.8126,0.8183,0.8235,0.8315,0.8349,0.8393,0.8394,0.8406,0.8409,0.8412,0.841,0.8353,0.8404,0.8404,0.8404,0.8404,0.8404,0,0.7741,0.7776,0.7824,0.7888,0.7929,0.7942,0.7994,0.8027,0.8077,0.8124,0.8169,0.8232,0.8286,0.8334,0.839,0.8416,0.8426,0.8429,0.8428,0.8435,0.8406,0.8394,0.842,0.842,0.842,0.842,0.842,0.842,0.7767,0.7824,0.7848,0.7924,0.796,0.8016,0.8044,0.8082,0.812,0.8189,0.8233,0.8264,0.8311,0.837,0.8419,0.8432,0.845,0.8451,0.8466,0.8439,0.8437,0.8435,0.8423,0.8455,0.8455,0.8491,0.8491,0.8491]},{"header":{"parameterUnit":"m.s-1","parameterCategory":1,"la1":30.2991,"la2":30.254,"lo1":-89.0895,"lo2":-89.0444,"dy":0.0017,"dx":0.0017,"nx":28,"ny":28,"refTime":"2023-05-26T21:00:00:Z","depth":0,"parameterNumber":3,"parameterNumberName":"V-component_of_WINDS"},"data":[0,0,0,0,0,0,0,0,0,0,0,0,0,0,0,0,0,0,0,0,0,0,0,0,0,0,0,0,0,0,0,0,0,0,0,0,0,0,0,0,0,0,0,0,0,0,0,0,0,0,0,0,0,0,0,0,0,0,2.4949,2.4949,0,2.4949,2.4949,2.4949,2.4921,2.492,2.4919,2.4919,2.4921,2.4922,2.4923,0,0,0,0,0,0,0,0,0,0,0,0,0,2.4927,2.4928,2.4949,2.4949,2.4949,2.4949,2.4949,2.4949,2.4921,2.492,2.4919,2.4918,2.4921,2.4922,2.4923,0,0,0,0,0,0,0,0,0,0,0,0,0,2.4933,2.4928,2.4949,2.4935,2.4934,2.4949,2.4949,2.4949,2.4921,2.492,2.4919,2.4918,2.4921,2.4922,2.4923,2.4953,0,0,2.4927,2.4927,0,0,0,0,0,0,0,0,2.4933,2.4934,2.4937,2.4936,2.4934,2.4934,2.4942,2.4951,2.4922,2.4926,2.4919,2.4917,2.4927,2.4927,2.493,2.4953,2.4953,2.4927,2.4927,2.4928,2.4928,0,0,0,0,0,0,0,2.4932,2.4934,2.4949,2.4937,2.4935,2.493,2.4929,2.4944,2.4933,2.4926,2.4923,2.4924,2.4926,2.4929,2.493,2.4953,2.4927,2.4928,2.4928,2.4929,2.5004,2.5005,0,0,0,0,0,0,2.4933,2.4933,2.4949,2.4949,2.4931,2.4931,2.493,2.4935,2.4932,2.4931,2.4925,2.4923,2.4927,2.4928,2.493,2.4966,2.4928,2.4929,2.493,2.5003,2.5004,2.5006,0,0,0,0,0,0,2.4933,2.4935,2.4949,2.4941,2.4942,2.4932,2.4938,2.4936,2.4939,2.4932,2.493,2.493,2.4926,2.4928,2.4948,2.4966,2.4929,2.4931,2.5001,2.5003,2.5005,2.5039,0,0,0,0,0,0,2.4933,2.4935,2.4945,2.4941,2.4943,2.4966,2.4939,2.4937,2.4941,2.4938,2.4936,2.4935,2.4926,2.4946,2.4949,2.4967,2.4931,2.4999,2.5002,2.5004,2.5036,2.5042,2.5047,0,0,0,0,0,2.4932,2.4955,2.4946,2.4948,2.4955,2.4967,2.4968,2.4957,2.4942,2.4953,2.4949,2.4935,2.4963,2.4949,2.4951,2.497,2.4998,2.5001,2.5004,2.5034,2.5041,2.5047,0,0,0,0,0,0,2.4961,2.4954,2.4944,2.4966,2.4968,2.4962,2.4976,2.4964,2.497,2.4967,2.4953,2.4953,2.4976,2.4975,2.4958,2.5,2.4979,2.4982,2.5,2.5007,2.5012,2.5012,2.4932,0,0,0,0,0,2.497,2.498,2.4973,2.4993,2.4995,2.4985,2.499,2.4981,2.4983,2.4983,2.498,2.4983,2.4993,2.4999,2.5008,2.5036,2.5037,2.505,2.5056,2.506,2.5064,2.5081,2.5088,2.5015,2.5015,2.5015,0,0,2.4989,2.4986,2.4993,2.4999,2.4999,2.5011,2.4986,2.4999,2.5008,2.4985,2.5004,2.5003,2.5005,2.5029,2.504,2.5029,2.5084,2.5064,2.5067,2.5069,2.5085,2.5092,2.5098,2.5017,2.5017,2.5017,0,0,2.503,2.5028,2.5046,2.5047,2.5047,2.5041,2.5045,2.5043,2.5041,2.5059,2.5043,2.5055,2.5071,2.5074,2.5078,2.5122,2.511,2.5125,2.5153,2.517,2.5176,2.5181,2.5199,2.5205,2.5129,2.5129,2.5129,0,2.5054,2.507,2.5056,2.5071,2.5075,2.5055,2.5074,2.5076,2.508,2.5084,2.5071,2.5093,2.5093,2.5119,2.5131,2.5133,2.514,2.5126,2.5176,2.5181,2.5186,2.5203,2.5209,2.5131,2.513,2.513,2.513,0,2.51,2.5112,2.5126,2.513,2.5136,2.5153,2.5143,2.5151,2.5142,2.5138,2.5159,2.5158,2.5167,2.5173,2.5164,2.5199,2.5193,2.5178,2.5156,2.5195,2.5211,2.5217,2.5134,2.5133,2.5132,2.5132,0,0,2.5159,2.5156,2.5162,2.5165,2.5165,2.5174,2.5191,2.52,2.5208,2.5212,2.5227,2.5242,2.523,2.5234,2.5226,2.5241,2.5279,2.5225,2.5225,2.5237,2.532,2.5332,2.534,2.5271,2.5272,2.5273,2.5321,0,2.52,2.5228,2.5217,2.5246,2.5258,2.5241,2.5256,2.5259,2.5256,2.5266,2.5263,2.5276,2.5257,2.526,2.5274,2.5271,2.5296,2.5268,2.5287,2.5288,2.5288,2.5348,2.536,2.5405,2.5327,2.5328,2.5329,0,2.5251,2.5257,2.5288,2.5288,2.5293,2.5306,2.5315,2.5325,2.5328,2.5326,2.5331,2.5321,2.5339,2.5317,2.5343,2.5324,2.5332,2.5332,2.5334,2.5336,2.5311,2.5354,2.5419,2.5427,2.5338,2.5337,2.5336,0,2.5294,2.5309,2.533,2.5333,2.5333,2.5344,2.5345,2.5347,2.5354,2.5362,2.5366,2.5376,2.5382,2.5391,2.5384,2.5368,2.5413,2.5389,2.5413,2.5413,2.5424,2.5423,2.5493,2.5426,2.5426,2.5426,2.5425,0,2.5341,2.5361,2.535,2.5363,2.5386,2.5374,2.5397,2.5396,2.5399,2.5413,2.5398,2.5412,2.5401,2.5414,2.5409,2.5433,2.5436,2.5435,2.5434,2.5438,2.5438,2.5443,2.544,2.5427,2.5427,2.5427,2.5426,0,2.5393,2.5385,2.5408,2.5407,2.5407,2.5424,2.5424,2.5437,2.5433,2.5451,2.5455,2.545,2.5465,2.5459,2.5475,2.5471,2.5503,2.5497,2.5502,2.5501,2.5526,2.5524,2.5602,2.5613,2.5537,2.5538,2.5539,0,2.5424,2.5439,2.544,2.5448,2.545,2.5463,2.547,2.546,2.5469,2.5475,2.5488,2.5502,2.5513,2.5538,2.5537,2.555,2.5545,2.5571,2.5546,2.555,2.5548,2.5547,2.555,2.5577,2.5577,2.5578,2.5579,0,2.5482,2.5478,2.5488,2.5499,2.5508,2.5515,2.5521,2.5529,2.552,2.553,2.5545,2.5554,2.5571,2.5585,2.5597,2.56,2.5589,2.5586,2.5593,2.5597,2.5601,2.5601,2.5517,2.5585,2.5584,2.5584,2.5583,2.5583,2.5526,2.5539,2.5543,2.5555,2.5559,2.5566,2.5579,2.5578,2.559,2.5603,2.5596,2.5615,2.562,2.5635,2.564,2.5655,2.5645,2.5654,2.5656,2.5659,2.5663,2.5597,2.5657,2.5657,2.5657,2.5656,2.5656,0,2.5584,2.5586,2.5598,2.5607,2.5618,2.5606,2.5613,2.5623,2.564,2.5645,2.5657,2.5676,2.5691,2.5691,2.5705,2.5718,2.5713,2.5722,2.5722,2.5723,2.567,2.5664,2.5726,2.5726,2.5726,2.5726,2.5726,2.5726,2.5616,2.5639,2.5636,2.5662,2.5664,2.5681,2.5687,2.5694,2.5699,2.572,2.5733,2.5733,2.5737,2.5752,2.5766,2.5766,2.5773,2.5784,2.5782,2.5733,2.5727,2.572,2.5714,2.5785,2.5785,2.5834,2.5835,2.5835]}]]